Погода в Житомире

Погода в Житомире : погода сейчас, прогноз погоды и архив. Всё, что Вы хотите узнать о погоде в Житомире!

Хотите узнать прогноз погоды в Житомире? Тогда Вам сюда: Погода в Житомире

Поиск расширенной информации на нашем сайте:

Другие новости

Новости СМИ2

Главная страница сайта

Новости сайта

03.07.2017

Напоминаем, что на нашем специализированном сайте Метеоцентр.Азия вы можете получить высокодетализированные автоматические прогнозы погоды по пунктам России, СНГ и мира в авиационном формате (включающие направление и скорость ветра, видимость, явления погоды, количество и форму облачности, нижнюю и верхнюю границу облачности).


Погода в Житомире - сегодня

Время (UTC), дата Ветер
(°,м/с) 
Видим.   Явления Облачность Т
(°С)
Тd
(°С)
f(%) Тe
(°С)
Pmin
(гПа)
dP
(гПа)
Po
(мм)
O2
(г/м3)
Тmin Tmax R s Состояние
почвы
09 17.08.18 110 (В) 10 км    9/4 600 м верхняя 
[Cu hum|Cc]
+25.1 +17.1 61 +38  1017.6  -0.3  744  271           
12 17.08.18 330 (СЗ) 10 км    10/4 600 м кучево-дожд., средняя 
[Cb cap|Ac und]
+25.4 +17.6 62 +39  1017.5  -0.1  744  270           
15 17.08.18 тихо ()   10 км    9/5 700 м кучево-дожд., средняя 
[Cb cap|Ac trans]
+25.5 +19.1 68 +42  1016.6  -0.8  744  270           
18 17.08.18 тихо ()   10 км    4/0 верхняя 
[Ci fib]
+21.6 +19.1 86 +39  1016.9  744  273    +26.9       
21 17.08.18 тихо ()   4000 м  дымка  3/0 верхняя 
[Ci fib]
+19.8 +18.7 93 +36  1017.3  0.2  744  275           
03 18.08.18 тихо ()   4000 м  дымка  4/0 средняя, верхняя 
[Ac trans|Ci fib]
+17 +16.7 98 +29  1017.8  744  279           
09 18.08.18 100 (В) 10 км  {ливн. осадки}  9/6 720 м кучево-дожд., средняя, верхняя 
[Cb cap|Ac trans|Cc]
+23.3 +16.8 67 +35  1018.2  0.2  745  273           
12 18.08.18 140 (ЮВ) 10 км  {ливн. осадки}  9/3 600 м средняя, верхняя 
[Sc|Ac trans|Cs]
+27.1 +15.5 49 +37  1017.9  745  270      0.4     
15 18.08.18 160 (Ю) 10 км    9/0 верхняя 
[Cs]
+26.5 +16.9 56 +39  1016.9  -1  744  270           
18 18.08.18 010 (С) 10 км    4/0 средняя 
[Ac trans]
+21.5 +18.5 83 +37  1018.2  0.9  745  274    +27.4  0.4     
21 18.08.18 220 (ЮЗ) 10 км  гроза без осадков  10/8 720 м кучево-дожд., средняя 
[Cb cap|Ac und]
+20.1 +14.7 71 +28  1020.6  2.2  746  277           
00 19.08.18 тихо ()   4000 м  гроза без осадков{ливн. осадки}  10/8 750 м кучево-дожд., средняя 
[Cb cap|Ac und]
+17.4 +16.4 94 +29  1018.9  -1.9  745  279         
03 19.08.18 350 (С) 4000 м  гроза без осадков  8/6 720 м кучево-дожд., средняя 
[Cb cap|Ac trans]
+17.1 +16.3 95 +30  1019.3  0.4  745  279           
06 19.08.18 360 (С) 10 км  {гроза}  6/0 средняя, верхняя 
[Ac trans|Ci fib]
+19.4 +17.1 87 +34  1019.4  0.3  745  277  +16.7       
09 19.08.18 030 (СВ) 10 км    9/1 600 м верхняя 
[Cu hum|Ci fib]
+23.7 +16.4 64 +35  1019.5  0.4  746  273           
12 19.08.18 270 (З) 10 км    8/5 900 м верхняя 
[Cu med, cong|Ci fib]
+25.8 +17 58 +38  1018.7  -0.6  745  271           
15 19.08.18 360 (С) 10 км    5/3 600 м верхняя 
[Cu med, cong|Ci fib]
+26.1 +16.6 56 +38  1017.8  -0.8  745  270           
18 19.08.18 тихо ()   10 км    9/8 900 м верхняя 
[Sc|Cs]
+22.2 +17.5 75 +36  1018.5  0.3  745  274    +26.9       
21 19.08.18 тихо ()   10 км    8/4 1000 м средняя, верхняя 
[Sc|Ac trans|Cs]
+19.8 +17.9 89 +34  1018.8  0.1  745  276           
06 20.08.18 тихо ()   10 км    4/0 средняя, верхняя 
[Ac trans|Ci fib]
+21.6 +17.9 79 +36  1018  745  274  +16.6         
09 20.08.18 070 (В) 10 км    3/3 1000 м 
[Cu hum]
+25.8 +14.3 49 +33  1017.3  -0.4  744  271           
12 20.08.18 150 (ЮВ) 10 км    4/4 1000 м 
[Cu med, cong]
+27.5 +14.9 46 +36  1016  -1.1  743  269           
15 20.08.18 тихо ()   10 км    3/0 средняя, верхняя 
[Ac trans|Ci fib]
+27 +15 48 +36  1014.9  -1.1  743  269           
18 20.08.18 тихо ()   10 км    1/0 средняя 
[Ac trans]
+23.2 +15.6 62 +33  1014.9  -0.3  742  272    +28.2       
21 20.08.18 тихо ()   10 км    3/0 верхняя 
[Cc]
+20.4 +16.1 76 +31  1014.9  -0.2  742  275           
Время (UTC), дата Ветер
(°,м/с) 
Видим.   Явления Облачность Т
(°С)
Тd
(°С)
f(%) Тe
(°С)
Pmin
(гПа)
dP
(гПа)
Po
(мм)
O2
(г/м3)
Тmin Tmax R s Состояние
почвы

Для получения пояснительной информации подведите курсор к названию столбца.

ПОГОДА в Житомире - архив

Всё, что Вы хотите узнать о погоде в Житомире - удобно и подробно!

Выберите нужную дату (начиная с 1 января 2015* года) и нажмите кнопку "Найти".
Будут отображены архивные сводки погоды по пункту Житомир, начиная с указанной даты.


Отображать данные в формате CSV (для использования в таблицах Excel)


Внимание! Наш архив погоды предназначен исключительно для личного некоммерческого использования в познавательных целях. Если Вам необходимы официальные справки о состоянии погоды (для производственных, юридических, коммерческих и т.п. целей), обращайтесь в органы Росгидромета.

*Примечание: данная дата относится к архиву по метеостанциям СССР (Россия, СНГ, Балтия).
Архив по метеостанциям Зарубежной Европы и Азии (кроме Китая) хранится 10 дней, по другим регионам земного шара (Китай, Африка, Америка, Австралия, Океания) - 1 день.

Житомир - район местоположения метеостанции


Название, широта, долгота, высота метеостанции:
Житомир 50.2°ш. 28.7°д. 224 м над ур. моря [Украина]

Дополнительная информация

В oтличие oт бoльшинства пoгoдных сайтoв мы публикуем пoдрoбную метеoинфoрмацию в детальнoм прoфессиoнальнoм фoрмате.

Характеристики температуры и влажнoсти вoздуха измеряются на высoте 2 м в тени вдали oт зданий и деревьев.
Скoрoсть ветра измеряется на высoте 10 м (на урoвне рoста челoвека скoрoсть ветра ниже в 1.5-2 раза). Если метеoстанция нахoдится в гoрoде или в лесу, тo скoрoсть ветра занижена на 2-4 м/с пo сравнению с oткрытым местoм. Скoрoсть ветра над акватoриями крупных рек и oзёр, а также на вершинах хoлмoв на 2-5 м/с выше, чем в oбычных услoвиях.
Атмoсфернoе давление в разных тoчках местнoсти мoжет значительнo oтличаться oт давления на метеoстанции, в зависимoсти oт услoвий рельефа (при пoдъёме на 10 м давление пoнижается примернo на 1 мм рт.ст.).